[[{"header":{"parameterUnit":"m.s-1","parameterCategory":1,"la1":30.2991,"la2":30.254,"lo1":-89.0895,"lo2":-89.0444,"dy":0.0017,"dx":0.0017,"nx":28,"ny":28,"refTime":"2023-08-27T21:00:00:Z","depth":0,"parameterNumber":2,"parameterNumberName":"U-component_of_WINDS"},"data":[0,0,0,0,0,0,0,0,0,0,0,0,0,0,0,0,0,0,0,0,0,0,0,0,0,0,0,0,0,0,0,0,0,0,0,0,0,0,0,0,0,0,0,0,0,0,0,0,0,0,0,0,0,0,0,0,0,0,-4.2376,-4.2378,0,-4.2516,-4.2517,-4.2519,-4.2453,-4.2449,-4.2446,-4.2442,-4.2587,-4.2594,-4.2601,0,0,0,0,0,0,0,0,0,0,0,0,0,-4.2056,-4.2062,-4.2376,-4.2378,-4.238,-4.2516,-4.2517,-4.2519,-4.2453,-4.2449,-4.2445,-4.2441,-4.2585,-4.2593,-4.2602,0,0,0,0,0,0,0,0,0,0,0,0,0,-4.2195,-4.2064,-4.2376,-4.2363,-4.2363,-4.2515,-4.2518,-4.252,-4.2454,-4.2449,-4.2444,-4.2439,-4.2582,-4.2592,-4.2603,-4.2776,0,0,-4.2636,-4.2641,0,0,0,0,0,0,0,0,-4.2187,-4.2207,-4.2363,-4.2364,-4.2365,-4.2461,-4.2457,-4.2606,-4.2456,-4.242,-4.2442,-4.2436,-4.255,-4.2563,-4.2601,-4.2783,-4.2789,-4.2637,-4.2643,-4.2648,-4.2651,0,0,0,0,0,0,0,-4.2178,-4.2201,-4.2431,-4.2366,-4.2367,-4.2351,-4.2365,-4.2485,-4.2513,-4.2423,-4.2418,-4.2435,-4.2549,-4.2591,-4.2604,-4.2791,-4.2637,-4.2646,-4.2653,-4.2657,-4.3124,-4.313,0,0,0,0,0,0,-4.2168,-4.2193,-4.2427,-4.2436,-4.2261,-4.2362,-4.2377,-4.2436,-4.2512,-4.2518,-4.244,-4.2432,-4.2575,-4.2591,-4.2608,-4.2816,-4.2648,-4.2658,-4.2664,-4.3118,-4.3125,-4.3132,0,0,0,0,0,0,-4.2161,-4.219,-4.2421,-4.2313,-4.2341,-4.2373,-4.2439,-4.2441,-4.2482,-4.2525,-4.2529,-4.2477,-4.2571,-4.2593,-4.2735,-4.282,-4.2663,-4.2673,-4.3111,-4.312,-4.3129,-4.3233,0,0,0,0,0,0,-4.2153,-4.2188,-4.2253,-4.2315,-4.2348,-4.2545,-4.2444,-4.2448,-4.2501,-4.2492,-4.256,-4.2567,-4.2569,-4.2719,-4.2746,-4.2832,-4.2681,-4.3104,-4.3115,-4.3126,-4.3222,-4.3245,-4.3264,0,0,0,0,0,-4.2141,-4.2277,-4.2256,-4.2285,-4.2429,-4.255,-4.2568,-4.2567,-4.2508,-4.2574,-4.2602,-4.2565,-4.2807,-4.2734,-4.2764,-4.2855,-4.3098,-4.3112,-4.3125,-4.3213,-4.324,-4.3264,0,0,0,0,0,0,-4.2223,-4.2284,-4.2262,-4.2422,-4.2481,-4.2538,-4.2621,-4.2596,-4.2674,-4.2662,-4.2658,-4.2674,-4.2821,-4.2853,-4.277,-4.3027,-4.2944,-4.2964,-4.3001,-4.3027,-4.3048,-4.3036,-4.269,0,0,0,0,0,-4.226,-4.2352,-4.2401,-4.2537,-4.2568,-4.259,-4.2642,-4.2637,-4.2698,-4.2723,-4.276,-4.2822,-4.2912,-4.2972,-4.3057,-4.3228,-4.3242,-4.3305,-4.3326,-4.3343,-4.3359,-4.3453,-4.3481,-4.3176,-4.3176,-4.3176,0,0,-4.2337,-4.2382,-4.244,-4.2555,-4.26,-4.2696,-4.2611,-4.2716,-4.2788,-4.2739,-4.2875,-4.2905,-4.2974,-4.3131,-4.3202,-4.3162,-4.3447,-4.336,-4.3373,-4.338,-4.3469,-4.3498,-4.3524,-4.3185,-4.3183,-4.3182,0,0,-4.2525,-4.2568,-4.2686,-4.2734,-4.2804,-4.2818,-4.2847,-4.2909,-4.2927,-4.3063,-4.3029,-4.3115,-4.327,-4.3321,-4.3367,-4.3578,-4.3547,-4.3606,-4.3714,-4.3805,-4.3829,-4.385,-4.3925,-4.3952,-4.3623,-4.3623,-4.3624,0,-4.2611,-4.2754,-4.2751,-4.2859,-4.2911,-4.2872,-4.2992,-4.3039,-4.3133,-4.3171,-4.3124,-4.3319,-4.3363,-4.3531,-4.3583,-4.3622,-4.3655,-4.3597,-4.3826,-4.3847,-4.3867,-4.3938,-4.3967,-4.363,-4.3629,-4.3629,-4.3628,0,-4.2857,-4.2956,-4.3044,-4.3136,-4.3198,-4.3312,-4.3327,-4.3391,-4.3381,-4.3401,-4.3541,-4.3593,-4.3688,-4.3728,-4.372,-4.3897,-4.387,-4.3825,-4.3741,-4.3903,-4.397,-4.3997,-4.364,-4.3637,-4.3635,-4.3634,0,0,-4.3098,-4.3188,-4.322,-4.3262,-4.3337,-4.3415,-4.3528,-4.3621,-4.3676,-4.3744,-4.3839,-4.3973,-4.3932,-4.3985,-4.3982,-4.4062,-4.4226,-4.4008,-4.4009,-4.4046,-4.4425,-4.4457,-4.4489,-4.4207,-4.4212,-4.4217,-4.4419,0,-4.3291,-4.3487,-4.3489,-4.3671,-4.3764,-4.3729,-4.3828,-4.3886,-4.3908,-4.3991,-4.4016,-4.4111,-4.4051,-4.4082,-4.416,-4.419,-4.4302,-4.4175,-4.4296,-4.43,-4.4278,-4.4524,-4.4558,-4.4747,-4.4446,-4.445,-4.4453,0,-4.3541,-4.3617,-4.3808,-4.3871,-4.391,-4.3998,-4.4085,-4.4164,-4.423,-4.4241,-4.4301,-4.4287,-4.4404,-4.4318,-4.4479,-4.4393,-4.4443,-4.4466,-4.4473,-4.4483,-4.4385,-4.454,-4.4807,-4.4835,-4.4495,-4.4492,-4.4489,0,-4.3697,-4.3847,-4.3981,-4.4018,-4.4095,-4.4158,-4.4194,-4.4254,-4.4311,-4.4387,-4.4424,-4.4513,-4.4562,-4.4632,-4.4643,-4.4579,-4.4806,-4.472,-4.4818,-4.4818,-4.4865,-4.4862,-4.5143,-4.49,-4.49,-4.4899,-4.4899,0,-4.3912,-4.403,-4.4052,-4.4134,-4.4266,-4.4268,-4.4399,-4.4429,-4.4484,-4.4572,-4.4549,-4.4633,-4.4643,-4.473,-4.4739,-4.4872,-4.4894,-4.4907,-4.4908,-4.4908,-4.4907,-4.4939,-4.4926,-4.4907,-4.4905,-4.4904,-4.4903,0,-4.4107,-4.4127,-4.427,-4.4332,-4.4351,-4.4445,-4.4499,-4.4578,-4.4599,-4.4712,-4.4738,-4.4772,-4.4873,-4.4891,-4.5011,-4.5018,-4.5176,-4.5164,-4.5153,-4.5151,-4.5248,-4.5238,-4.5559,-4.5601,-4.5332,-4.5334,-4.5336,0,-4.4241,-4.4331,-4.4404,-4.4461,-4.45,-4.4593,-4.465,-4.4657,-4.4719,-4.4802,-4.4871,-4.497,-4.5049,-4.5214,-4.5249,-4.5341,-4.5331,-4.5437,-4.5344,-4.5342,-4.5332,-4.5326,-4.5335,-4.5454,-4.5457,-4.5459,-4.5461,0,-4.4478,-4.4484,-4.4568,-4.4656,-4.4726,-4.4796,-4.4862,-4.4911,-4.4927,-4.4997,-4.51,-4.5162,-4.5285,-4.5384,-4.5476,-4.5513,-4.5491,-4.5491,-4.5518,-4.5519,-4.5508,-4.5515,-4.52,-4.5483,-4.5481,-4.5479,-4.5478,-4.5477,-4.4647,-4.4726,-4.4789,-4.4884,-4.4935,-4.4998,-4.5075,-4.5107,-4.5193,-4.5292,-4.5292,-4.5406,-4.5471,-4.5592,-4.5637,-4.5726,-4.5692,-4.5732,-4.5742,-4.5751,-4.576,-4.5496,-4.5743,-4.5743,-4.5742,-4.5742,-4.5741,0,-4.4882,-4.4922,-4.5009,-4.5102,-4.5177,-4.515,-4.5223,-4.5287,-4.5387,-4.545,-4.5529,-4.5649,-4.5745,-4.579,-4.5885,-4.5948,-4.5941,-4.5973,-4.5968,-4.5977,-4.5785,-4.5752,-4.5978,-4.5978,-4.5978,-4.5978,-4.5978,-4.5978,-4.5013,-4.5145,-4.5159,-4.5316,-4.5355,-4.5466,-4.551,-4.5568,-4.5618,-4.5753,-4.5833,-4.5861,-4.5917,-4.6017,-4.6105,-4.6116,-4.6152,-4.6189,-4.6195,-4.6014,-4.599,-4.5967,-4.5936,-4.6197,-4.6197,-4.6379,-4.6381,-4.6382]},{"header":{"parameterUnit":"m.s-1","parameterCategory":1,"la1":30.2991,"la2":30.254,"lo1":-89.0895,"lo2":-89.0444,"dy":0.0017,"dx":0.0017,"nx":28,"ny":28,"refTime":"2023-08-27T21:00:00:Z","depth":0,"parameterNumber":3,"parameterNumberName":"V-component_of_WINDS"},"data":[0,0,0,0,0,0,0,0,0,0,0,0,0,0,0,0,0,0,0,0,0,0,0,0,0,0,0,0,0,0,0,0,0,0,0,0,0,0,0,0,0,0,0,0,0,0,0,0,0,0,0,0,0,0,0,0,0,0,2.5205,2.5206,0,2.5238,2.5238,2.5239,2.5323,2.5325,2.5327,2.5328,2.5356,2.5355,2.5354,0,0,0,0,0,0,0,0,0,0,0,0,0,2.5212,2.5212,2.5205,2.5206,2.5206,2.5238,2.5238,2.5239,2.5323,2.5325,2.5327,2.5329,2.5357,2.5355,2.5354,0,0,0,0,0,0,0,0,0,0,0,0,0,2.5223,2.5211,2.5205,2.5252,2.5257,2.5238,2.5238,2.5239,2.5322,2.5325,2.5328,2.533,2.5357,2.5356,2.5354,2.5291,0,0,2.535,2.5349,0,0,0,0,0,0,0,0,2.5222,2.5223,2.5245,2.5249,2.5254,2.5279,2.5251,2.5256,2.5322,2.5297,2.5329,2.5332,2.5328,2.5329,2.5329,2.5292,2.5293,2.535,2.5349,2.5348,2.5348,0,0,0,0,0,0,0,2.5222,2.5222,2.5218,2.5245,2.5251,2.527,2.5275,2.5252,2.5297,2.53,2.5306,2.5309,2.5331,2.533,2.533,2.5294,2.535,2.5348,2.5348,2.5347,2.5204,2.5202,0,0,0,0,0,0,2.5215,2.5221,2.5217,2.5219,2.5245,2.5268,2.5273,2.5268,2.5297,2.5304,2.5306,2.5313,2.5331,2.5332,2.5332,2.5257,2.5348,2.5347,2.5346,2.5207,2.5204,2.5201,0,0,0,0,0,0,2.5215,2.5214,2.5216,2.5222,2.5223,2.5265,2.5259,2.5268,2.5267,2.5303,2.531,2.5298,2.5334,2.5334,2.53,2.526,2.5346,2.5345,2.5211,2.5206,2.5202,2.5109,0,0,0,0,0,0,2.5214,2.5213,2.519,2.5221,2.5223,2.5185,2.5257,2.5266,2.5265,2.5273,2.5296,2.5303,2.5336,2.5302,2.5299,2.5259,2.5344,2.5215,2.5209,2.5204,2.5116,2.5102,2.509,0,0,0,0,0,2.5214,2.5162,2.5189,2.5188,2.5195,2.5182,2.5183,2.5224,2.5261,2.5238,2.5261,2.5302,2.5266,2.5298,2.5295,2.5254,2.5217,2.521,2.5204,2.5122,2.5105,2.5091,0,0,0,0,0,0,2.5124,2.5167,2.5197,2.5153,2.5164,2.5197,2.5168,2.5205,2.5204,2.5211,2.526,2.5265,2.5224,2.5237,2.5272,2.5194,2.5248,2.524,2.5186,2.5171,2.5158,2.5154,2.5343,0,0,0,0,0,2.5099,2.5086,2.5124,2.5082,2.5086,2.5126,2.5122,2.5152,2.5164,2.5169,2.5189,2.5198,2.5189,2.5181,2.5174,2.512,2.5124,2.509,2.5078,2.5067,2.5058,2.5028,2.5013,2.5179,2.5179,2.5179,0,0,2.5047,2.5069,2.5057,2.5064,2.5076,2.506,2.5129,2.5109,2.5097,2.5165,2.5135,2.515,2.5163,2.5118,2.51,2.5127,2.5014,2.5058,2.505,2.5047,2.502,2.5004,2.499,2.5175,2.5175,2.5176,0,0,2.4943,2.496,2.4925,2.4936,2.4954,2.4981,2.4973,2.5001,2.5014,2.4985,2.5036,2.5022,2.5005,2.5011,2.5012,2.4913,2.4949,2.4909,2.4841,2.4811,2.4797,2.4786,2.4747,2.4733,2.4902,2.4902,2.4901,0,2.4875,2.4854,2.4903,2.488,2.488,2.4944,2.4908,2.4916,2.493,2.4928,2.496,2.494,2.4953,2.4909,2.4885,2.4885,2.4875,2.4905,2.4796,2.4785,2.4775,2.4739,2.4724,2.4896,2.4897,2.4897,2.4898,0,2.4769,2.4754,2.4724,2.4737,2.4735,2.4705,2.4747,2.4739,2.4771,2.4794,2.4762,2.4781,2.4779,2.4772,2.4802,2.4732,2.4748,2.4788,2.4842,2.4753,2.4719,2.4706,2.4889,2.4891,2.4892,2.4894,0,0,2.4605,2.4647,2.4635,2.4641,2.4666,2.4655,2.4628,2.4628,2.4618,2.4626,2.4603,2.4588,2.4625,2.4626,2.4658,2.4632,2.4548,2.4674,2.4675,2.4647,2.4469,2.4437,2.442,2.4575,2.4572,2.457,2.4467,0,2.4505,2.4463,2.4506,2.4454,2.4439,2.4501,2.4477,2.4489,2.451,2.45,2.4524,2.4511,2.4562,2.4563,2.454,2.4563,2.4512,2.4572,2.455,2.4549,2.4541,2.4403,2.4369,2.4271,2.4455,2.4453,2.4451,0,2.4382,2.4385,2.4332,2.436,2.4356,2.4334,2.4336,2.4327,2.4341,2.4359,2.436,2.44,2.4373,2.443,2.4393,2.4433,2.4427,2.4437,2.4434,2.443,2.4492,2.4392,2.4241,2.4224,2.4432,2.4433,2.4434,0,2.4264,2.4256,2.4222,2.4226,2.4259,2.4242,2.4254,2.4272,2.4269,2.4271,2.4269,2.4267,2.4265,2.4263,2.43,2.4338,2.4257,2.4317,2.4268,2.4267,2.4245,2.4245,2.4087,2.4248,2.4248,2.4248,2.4248,0,2.4145,2.4109,2.417,2.4149,2.411,2.416,2.412,2.4139,2.4154,2.4136,2.419,2.4172,2.4224,2.4211,2.424,2.4203,2.4203,2.4215,2.4222,2.4208,2.4205,2.4202,2.4208,2.4244,2.4245,2.4246,2.4247,0,2.4005,2.4045,2.4012,2.4047,2.4054,2.4024,2.4053,2.4034,2.406,2.4037,2.4035,2.4075,2.4062,2.41,2.4094,2.4113,2.4059,2.408,2.4054,2.4059,2.4006,2.4009,2.3837,2.3815,2.3993,2.3991,2.399,0,2.3924,2.3898,2.3931,2.3924,2.3934,2.3922,2.3919,2.3968,2.3963,2.3977,2.3956,2.3949,2.3945,2.3922,2.3949,2.3944,2.3962,2.3902,2.3961,2.3947,2.3957,2.3956,2.3953,2.3888,2.3886,2.3884,2.3883,0,2.3776,2.3798,2.3793,2.3794,2.379,2.3793,2.38,2.3791,2.3843,2.3834,2.3823,2.382,2.3814,2.3805,2.3806,2.3817,2.3857,2.3865,2.3852,2.3835,2.382,2.3824,2.4017,2.3867,2.3869,2.387,2.3871,2.3871,2.3661,2.3641,2.366,2.3653,2.3664,2.3669,2.3652,2.3678,2.367,2.3669,2.3699,2.3681,2.3696,2.3701,2.3709,2.3694,2.3722,2.3704,2.37,2.3694,2.3683,2.3826,2.3695,2.3695,2.3696,2.3696,2.3697,0,2.3513,2.353,2.3522,2.3531,2.3524,2.3567,2.3577,2.3567,2.3552,2.3563,2.3559,2.3545,2.3537,2.3565,2.356,2.3542,2.356,2.3539,2.3539,2.354,2.3661,2.367,2.3524,2.3524,2.3525,2.3525,2.3525,2.3525,2.3435,2.3402,2.3425,2.3397,2.3414,2.3398,2.34,2.3404,2.3413,2.3396,2.339,2.3409,2.3426,2.3423,2.3417,2.3425,2.3419,2.339,2.3404,2.3515,2.3532,2.3548,2.3557,2.339,2.339,2.3285,2.3284,2.3283]}]]